Time,TemperatureF,DewpointF,PressureIn,WindDirection,WindDirectionDegrees,WindSpeedMPH,WindSpeedGustMPH,Humidity,HourlyPrecipIn,Conditions,Clouds,dailyrainin,SoftwareType,DateUTC
2013-02-17 00:02:00,24.0,23.0,-100.00,West,260,2.0,4.0,96,0.00,,,-99.99,,2013-02-17 06:02:00,
2013-02-17 00:11:00,23.0,22.0,-100.00,WSW,240,1.0,3.0,96,0.00,,,-99.99,,2013-02-17 06:11:00,
2013-02-17 00:21:00,23.0,22.0,-100.00,North,-999,-999.0,-999.0,96,-99.99,,,-99.99,,2013-02-17 06:21:00,
2013-02-17 00:31:00,22.0,22.0,-100.00,SW,220,1.0,3.0,97,0.00,,,-99.99,,2013-02-17 06:31:00,
2013-02-17 00:41:00,22.0,22.0,-100.00,SW,220,1.0,3.0,97,0.00,,,-99.99,,2013-02-17 06:41:00,
2013-02-17 00:51:00,21.0,21.0,-100.00,SW,220,1.0,2.0,98,0.00,,,-99.99,,2013-02-17 06:51:00,
2013-02-17 01:01:00,21.0,21.0,-100.00,SW,235,1.0,3.0,99,0.00,,,-99.99,,2013-02-17 07:01:00,
2013-02-17 01:11:00,21.0,21.0,-100.00,WSW,240,1.0,2.0,99,0.00,,,-99.99,,2013-02-17 07:11:00,
2013-02-17 01:21:00,20.0,20.0,-100.00,WSW,245,0.0,1.0,99,0.00,,,-99.99,,2013-02-17 07:21:00,
2013-02-17 01:31:00,19.0,19.0,-100.00,WSW,245,1.0,4.0,99,0.00,,,-99.99,,2013-02-17 07:31:00,
2013-02-17 01:41:00,18.0,18.0,-100.00,WSW,240,1.0,2.0,99,0.00,,,-99.99,,2013-02-17 07:41:00,
2013-02-17 01:51:00,18.0,17.0,-100.00,SW,225,1.0,1.0,99,0.00,,,-99.99,,2013-02-17 07:51:00,
2013-02-17 02:01:00,18.0,17.0,-100.00,WSW,240,0.0,1.0,99,0.00,,,-99.99,,2013-02-17 08:01:00,
2013-02-17 02:11:00,17.0,17.0,-100.00,SW,230,0.0,1.0,99,0.00,,,-99.99,,2013-02-17 08:11:00,
2013-02-17 02:21:00,17.0,17.0,-100.00,SW,235,1.0,2.0,99,0.00,,,-99.99,,2013-02-17 08:21:00,
2013-02-17 02:31:00,16.0,16.0,-100.00,SW,215,0.0,4.0,99,0.00,,,-99.99,,2013-02-17 08:31:00,
2013-02-17 02:42:00,17.0,17.0,-100.00,West,260,1.0,2.0,99,0.00,,,-99.99,,2013-02-17 08:42:00,
2013-02-17 02:52:00,18.0,18.0,-100.00,WSW,250,3.0,4.0,99,0.00,,,-99.99,,2013-02-17 08:52:00,
2013-02-17 03:01:00,17.0,17.0,-100.00,SW,235,2.0,4.0,99,0.00,,,-99.99,,2013-02-17 09:01:00,
2013-02-17 03:11:00,17.0,17.0,-100.00,SW,235,2.0,4.0,99,0.00,,,-99.99,,2013-02-17 09:11:00,
2013-02-17 03:21:00,18.0,18.0,-100.00,SW,235,2.0,4.0,99,0.00,,,-99.99,,2013-02-17 09:21:00,
2013-02-17 03:31:00,17.0,17.0,-100.00,WSW,240,1.0,2.0,99,0.00,,,-99.99,,2013-02-17 09:31:00,
2013-02-17 03:41:00,17.0,17.0,-100.00,WSW,240,1.0,2.0,99,0.00,,,-99.99,,2013-02-17 09:41:00,
2013-02-17 03:51:00,17.0,17.0,-100.00,SW,235,1.0,2.0,99,0.00,,,-99.99,,2013-02-17 09:51:00,
2013-02-17 04:01:00,16.0,16.0,-100.00,SW,230,1.0,2.0,99,0.00,,,-99.99,,2013-02-17 10:01:00,
2013-02-17 04:11:00,15.0,15.0,-100.00,SW,230,0.0,2.0,99,0.00,,,-99.99,,2013-02-17 10:11:00,
2013-02-17 04:21:00,17.0,17.0,-100.00,WSW,255,4.0,6.0,99,0.00,,,-99.99,,2013-02-17 10:21:00,
2013-02-17 04:31:00,18.0,18.0,-100.00,WSW,240,4.0,6.0,99,0.00,,,-99.99,,2013-02-17 10:31:00,
2013-02-17 04:41:00,18.0,18.0,-100.00,WSW,240,4.0,5.0,99,0.00,,,-99.99,,2013-02-17 10:41:00,
2013-02-17 04:51:00,18.0,18.0,-100.00,WSW,245,4.0,4.0,99,0.00,,,-99.99,,2013-02-17 10:51:00,
2013-02-17 05:01:00,18.0,18.0,-100.00,SW,235,3.0,4.0,99,0.00,,,-99.99,,2013-02-17 11:01:00,
2013-02-17 05:11:00,16.0,16.0,-100.00,WSW,240,0.0,4.0,99,0.00,,,-99.99,,2013-02-17 11:11:00,
2013-02-17 05:21:00,16.0,16.0,-100.00,North,-999,-999.0,-999.0,99,0.00,,,-99.99,,2013-02-17 11:21:00,
2013-02-17 05:32:00,15.0,15.0,-100.00,SSW,200,0.0,2.0,99,0.00,,,-99.99,,2013-02-17 11:32:00,
2013-02-17 05:41:00,15.0,15.0,-100.00,West,260,0.0,3.0,99,0.00,,,-99.99,,2013-02-17 11:41:00,
2013-02-17 05:52:00,15.0,15.0,-100.00,SW,235,1.0,2.0,99,0.00,,,-99.99,,2013-02-17 11:52:00,
2013-02-17 06:03:00,14.0,14.0,-100.00,SW,215,0.0,2.0,99,0.00,,,-99.99,,2013-02-17 12:03:00,
2013-02-17 06:11:00,14.0,14.0,-100.00,ENE,75,0.0,1.0,99,0.00,,,-99.99,,2013-02-17 12:11:00,
2013-02-17 06:22:00,15.0,15.0,-100.00,SSE,155,1.0,1.0,99,0.00,,,-99.99,,2013-02-17 12:22:00,
2013-02-17 06:32:00,14.0,14.0,-100.00,SSW,210,1.0,2.0,99,0.00,,,-99.99,,2013-02-17 12:32:00,
2013-02-17 06:42:00,15.0,15.0,-100.00,WSW,245,3.0,4.0,99,0.00,,,-99.99,,2013-02-17 12:42:00,
2013-02-17 06:52:00,16.0,16.0,-100.00,SW,235,2.0,4.0,99,0.00,,,-99.99,,2013-02-17 12:52:00,
2013-02-17 07:02:00,15.0,15.0,-100.00,SW,235,3.0,4.0,99,0.00,,,-99.99,,2013-02-17 13:02:00,
2013-02-17 07:12:00,17.0,17.0,-100.00,SW,230,4.0,5.0,99,0.00,,,-99.99,,2013-02-17 13:12:00,
2013-02-17 07:21:00,18.0,18.0,-100.00,WSW,250,4.0,7.0,99,0.00,,,-99.99,,2013-02-17 13:21:00,
2013-02-17 07:32:00,19.0,18.0,-100.00,SW,235,4.0,6.0,99,0.00,,,-99.99,,2013-02-17 13:32:00,
2013-02-17 07:51:00,20.0,20.0,-100.00,WSW,240,5.0,6.0,99,0.00,,,-99.99,,2013-02-17 13:51:00,
2013-02-17 08:01:00,21.0,21.0,-100.00,WSW,240,5.0,8.0,99,0.00,,,-99.99,,2013-02-17 14:01:00,
2013-02-17 08:11:00,22.0,22.0,-100.00,SW,235,6.0,9.0,99,0.00,,,-99.99,,2013-02-17 14:11:00,
2013-02-17 08:21:00,24.0,24.0,-100.00,SW,215,7.0,10.0,98,0.00,,,-99.99,,2013-02-17 14:21:00,
2013-02-17 08:32:00,26.0,24.0,-100.00,SW,220,7.0,12.0,94,0.00,,,-99.99,,2013-02-17 14:32:00,
2013-02-17 08:52:00,27.0,25.0,-100.00,SW,225,6.0,9.0,91,0.00,,,-99.99,,2013-02-17 14:52:00,
2013-02-17 09:01:00,27.0,25.0,-100.00,SW,225,6.0,9.0,90,0.00,,,-99.99,,2013-02-17 15:01:00,
2013-02-17 09:11:00,28.0,26.0,-100.00,SW,225,7.0,9.0,89,0.00,,,-99.99,,2013-02-17 15:11:00,
2013-02-17 09:21:00,29.0,26.0,-100.00,SW,230,7.0,9.0,89,0.00,,,-99.99,,2013-02-17 15:21:00,
2013-02-17 09:31:00,29.0,26.0,-100.00,SW,230,7.0,9.0,89,0.00,,,-99.99,,2013-02-17 15:31:00,
2013-02-17 09:41:00,30.0,26.0,-100.00,SSW,210,9.0,13.0,86,0.00,,,-99.99,,2013-02-17 15:41:00,
2013-02-17 09:52:00,31.0,26.0,-100.00,SW,225,12.0,17.0,84,0.00,,,-99.99,,2013-02-17 15:52:00,
2013-02-17 10:01:00,31.0,27.0,-100.00,SW,225,8.0,16.0,84,0.00,,,-99.99,,2013-02-17 16:01:00,
2013-02-17 10:11:00,32.0,27.0,-100.00,SW,230,9.0,14.0,81,0.00,,,-99.99,,2013-02-17 16:11:00,
2013-02-17 10:21:00,33.0,27.0,-100.00,SSW,210,10.0,15.0,79,0.00,,,-99.99,,2013-02-17 16:21:00,
2013-02-17 10:32:00,33.0,27.0,-100.00,SW,235,14.0,18.0,76,0.00,,,-99.99,,2013-02-17 16:32:00,
2013-02-17 10:41:00,35.0,27.0,-100.00,SW,230,14.0,19.0,74,0.00,,,-99.99,,2013-02-17 16:41:00,
2013-02-17 10:51:00,36.0,28.0,-100.00,SW,225,8.0,17.0,72,0.00,,,-99.99,,2013-02-17 16:51:00,
2013-02-17 11:02:00,36.0,27.0,-100.00,SW,230,13.0,17.0,70,0.00,,,-99.99,,2013-02-17 17:02:00,
2013-02-17 11:11:00,37.0,28.0,-100.00,SW,230,11.0,18.0,68,0.00,,,-99.99,,2013-02-17 17:11:00,
2013-02-17 11:21:00,38.0,28.0,-100.00,SW,230,15.0,18.0,66,0.00,,,-99.99,,2013-02-17 17:21:00,
2013-02-17 11:32:00,39.0,28.0,-100.00,SW,230,12.0,19.0,65,0.00,,,-99.99,,2013-02-17 17:32:00,
2013-02-17 11:41:00,40.0,28.0,-100.00,SW,220,11.0,16.0,63,0.00,,,-99.99,,2013-02-17 17:41:00,
2013-02-17 11:52:00,40.0,29.0,-100.00,SW,220,12.0,17.0,62,0.00,,,-99.99,,2013-02-17 17:52:00,
2013-02-17 12:01:00,40.0,29.0,-100.00,SW,220,12.0,17.0,62,0.00,,,-99.99,,2013-02-17 18:01:00,
2013-02-17 12:11:00,42.0,29.0,-100.00,SW,215,13.0,19.0,59,0.00,,,-99.99,,2013-02-17 18:11:00,
2013-02-17 12:22:00,42.0,29.0,-100.00,SW,215,13.0,19.0,59,0.00,,,-99.99,,2013-02-17 18:22:00,
2013-02-17 12:33:00,44.0,29.0,-100.00,SW,230,13.0,21.0,56,0.00,,,-99.99,,2013-02-17 18:33:00,
2013-02-17 12:52:00,46.0,30.0,-100.00,SW,225,16.0,21.0,52,0.00,,,-99.99,,2013-02-17 18:52:00,
2013-02-17 13:01:00,46.0,30.0,-100.00,SW,225,16.0,21.0,52,0.00,,,-99.99,,2013-02-17 19:01:00,
2013-02-17 13:11:00,47.0,30.0,-100.00,SW,225,17.0,22.0,51,0.00,,,-99.99,,2013-02-17 19:11:00,
2013-02-17 13:21:00,47.0,30.0,-100.00,SW,220,11.0,21.0,51,0.00,,,-99.99,,2013-02-17 19:21:00,
2013-02-17 13:32:00,50.0,31.0,-100.00,SW,225,17.0,22.0,48,0.00,,,-99.99,,2013-02-17 19:32:00,
2013-02-17 13:41:00,50.0,31.0,-100.00,SW,220,19.0,26.0,47,0.00,,,-99.99,,2013-02-17 19:41:00,
2013-02-17 13:51:00,50.0,31.0,-100.00,SW,235,19.0,26.0,47,0.00,,,-99.99,,2013-02-17 19:51:00,
2013-02-17 14:02:00,50.0,31.0,-100.00,SW,235,20.0,26.0,47,0.00,,,-99.99,,2013-02-17 20:02:00,
2013-02-17 14:11:00,52.0,32.0,-100.00,SW,230,16.0,26.0,46,0.00,,,-99.99,,2013-02-17 20:11:00,
2013-02-17 14:21:00,52.0,32.0,-100.00,SW,235,17.0,22.0,46,0.00,,,-99.99,,2013-02-17 20:21:00,
2013-02-17 14:32:00,52.0,32.0,-100.00,WSW,245,21.0,31.0,45,0.00,,,-99.99,,2013-02-17 20:32:00,
2013-02-17 14:42:00,52.0,32.0,-100.00,WSW,245,20.0,31.0,45,0.00,,,-99.99,,2013-02-17 20:42:00,
2013-02-17 14:52:00,53.0,32.0,-100.00,WSW,240,23.0,30.0,44,0.00,,,-99.99,,2013-02-17 20:52:00,
2013-02-17 15:01:00,53.0,32.0,-100.00,WSW,240,23.0,30.0,44,0.00,,,-99.99,,2013-02-17 21:01:00,
2013-02-17 15:11:00,52.0,31.0,-100.00,WSW,240,22.0,29.0,45,0.00,,,-99.99,,2013-02-17 21:11:00,
2013-02-17 15:21:00,52.0,32.0,-100.00,SW,230,22.0,29.0,45,0.00,,,-99.99,,2013-02-17 21:21:00,
2013-02-17 15:32:00,52.0,31.0,-100.00,SW,225,19.0,29.0,45,0.00,,,-99.99,,2013-02-17 21:32:00,
2013-02-17 15:41:00,52.0,31.0,-100.00,SW,225,19.0,29.0,45,0.00,,,-99.99,,2013-02-17 21:41:00,
2013-02-17 15:52:00,51.0,31.0,-100.00,SW,235,20.0,28.0,46,0.00,,,-99.99,,2013-02-17 21:52:00,
2013-02-17 16:01:00,51.0,31.0,-100.00,WSW,240,20.0,28.0,46,0.00,,,-99.99,,2013-02-17 22:01:00,
2013-02-17 16:12:00,51.0,31.0,-100.00,SW,230,16.0,21.0,46,0.00,,,-99.99,,2013-02-17 22:12:00,
2013-02-17 16:21:00,51.0,31.0,-100.00,SW,225,16.0,21.0,46,0.00,,,-99.99,,2013-02-17 22:21:00,
2013-02-17 16:32:00,51.0,31.0,-100.00,SW,230,12.0,19.0,47,0.00,,,-99.99,,2013-02-17 22:32:00,
2013-02-17 16:41:00,51.0,31.0,-100.00,SW,230,12.0,19.0,47,0.00,,,-99.99,,2013-02-17 22:41:00,
2013-02-17 16:52:00,50.0,31.0,-100.00,SW,230,14.0,20.0,48,0.00,,,-99.99,,2013-02-17 22:52:00,
2013-02-17 17:02:00,50.0,31.0,-100.00,SW,230,14.0,20.0,48,0.00,,,-99.99,,2013-02-17 23:02:00,
2013-02-17 17:11:00,50.0,31.0,-100.00,SW,230,12.0,19.0,48,0.00,,,-99.99,,2013-02-17 23:11:00,
2013-02-17 17:21:00,50.0,32.0,-100.00,SW,225,12.0,16.0,49,0.00,,,-99.99,,2013-02-17 23:21:00,
2013-02-17 17:32:00,49.0,31.0,-100.00,SW,235,13.0,20.0,50,0.00,,,-99.99,,2013-02-17 23:32:00,
2013-02-17 17:42:00,48.0,31.0,-100.00,North,-999,-999.0,-999.0,51,0.00,,,-99.99,,2013-02-17 23:42:00,
2013-02-17 17:52:00,48.0,31.0,-100.00,SW,230,11.0,17.0,52,0.00,,,-99.99,,2013-02-17 23:52:00,
2013-02-17 18:01:00,48.0,31.0,-100.00,SW,230,11.0,17.0,52,0.00,,,-99.99,,2013-02-18 00:01:00,
2013-02-17 18:11:00,47.0,31.0,-100.00,SW,230,11.0,16.0,53,0.00,,,-99.99,,2013-02-18 00:11:00,
2013-02-17 18:22:00,47.0,31.0,-100.00,SW,230,11.0,16.0,53,0.00,,,-99.99,,2013-02-18 00:22:00,
2013-02-17 18:31:00,45.0,31.0,-100.00,WSW,240,10.0,14.0,55,0.00,,,-99.99,,2013-02-18 00:31:00,
2013-02-17 18:41:00,45.0,31.0,-100.00,WSW,240,10.0,14.0,55,0.00,,,-99.99,,2013-02-18 00:41:00,
2013-02-17 18:52:00,45.0,31.0,-100.00,SW,235,9.0,12.0,57,0.00,,,-99.99,,2013-02-18 00:52:00,
2013-02-17 19:01:00,45.0,31.0,-100.00,SW,235,9.0,12.0,57,0.00,,,-99.99,,2013-02-18 01:01:00,
2013-02-17 19:11:00,45.0,31.0,-100.00,SW,230,10.0,14.0,57,0.00,,,-99.99,,2013-02-18 01:11:00,
2013-02-17 19:31:00,45.0,32.0,-100.00,SW,230,11.0,15.0,58,0.00,,,-99.99,,2013-02-18 01:31:00,
2013-02-17 19:41:00,45.0,32.0,-100.00,SW,230,11.0,15.0,58,0.00,,,-99.99,,2013-02-18 01:41:00,
2013-02-17 19:51:00,45.0,32.0,-100.00,SW,230,11.0,17.0,58,0.00,,,-99.99,,2013-02-18 01:51:00,
2013-02-17 20:01:00,45.0,32.0,-100.00,SW,230,10.0,17.0,58,0.00,,,-99.99,,2013-02-18 02:01:00,
2013-02-17 20:11:00,45.0,32.0,-100.00,SW,235,11.0,17.0,59,0.00,,,-99.99,,2013-02-18 02:11:00,
2013-02-17 20:21:00,45.0,32.0,-100.00,SW,235,11.0,17.0,59,0.00,,,-99.99,,2013-02-18 02:21:00,
2013-02-17 20:32:00,46.0,32.0,-100.00,SW,230,13.0,17.0,59,0.00,,,-99.99,,2013-02-18 02:32:00,
2013-02-17 20:41:00,46.0,32.0,-100.00,SW,230,12.0,17.0,59,0.00,,,-99.99,,2013-02-18 02:41:00,
2013-02-17 20:52:00,46.0,33.0,-100.00,SW,235,10.0,16.0,59,0.00,,,-99.99,,2013-02-18 02:52:00,
2013-02-17 21:01:00,46.0,33.0,-100.00,SW,235,10.0,16.0,59,0.00,,,-99.99,,2013-02-18 03:01:00,
2013-02-17 21:11:00,46.0,33.0,-100.00,SW,230,12.0,18.0,59,0.00,,,-99.99,,2013-02-18 03:11:00,
2013-02-17 21:21:00,46.0,33.0,-100.00,SW,235,11.0,16.0,60,0.00,,,-99.99,,2013-02-18 03:21:00,
2013-02-17 21:31:00,43.0,32.0,-100.00,WSW,240,9.0,10.0,63,0.00,,,-99.99,,2013-02-18 03:31:00,
2013-02-17 21:42:00,43.0,32.0,-100.00,WSW,240,9.0,10.0,64,0.00,,,-99.99,,2013-02-18 03:42:00,
2013-02-17 21:51:00,43.0,32.0,-100.00,WSW,240,12.0,15.0,65,0.00,,,-99.99,,2013-02-18 03:51:00,
2013-02-17 22:01:00,43.0,32.0,-100.00,WSW,250,12.0,15.0,65,0.00,,,-99.99,,2013-02-18 04:01:00,
2013-02-17 22:11:00,42.0,32.0,-100.00,WSW,250,12.0,17.0,66,0.00,,,-99.99,,2013-02-18 04:11:00,
2013-02-17 22:21:00,42.0,32.0,-100.00,WSW,250,12.0,17.0,66,0.00,,,-99.99,,2013-02-18 04:21:00,
2013-02-17 22:32:00,42.0,32.0,-100.00,WSW,255,11.0,16.0,67,0.00,,,-99.99,,2013-02-18 04:32:00,
2013-02-17 22:41:00,42.0,32.0,-100.00,WSW,255,11.0,16.0,67,0.00,,,-99.99,,2013-02-18 04:41:00,
2013-02-17 22:51:00,39.0,31.0,-100.00,WSW,250,7.0,10.0,71,0.00,,,-99.99,,2013-02-18 04:51:00,
2013-02-17 23:01:00,39.0,31.0,-100.00,WSW,250,7.0,10.0,71,0.00,,,-99.99,,2013-02-18 05:01:00,
2013-02-17 23:11:00,38.0,31.0,-100.00,West,265,6.0,11.0,73,0.00,,,-99.99,,2013-02-18 05:11:00,
2013-02-17 23:21:00,40.0,33.0,-100.00,WSW,255,5.0,10.0,73,0.00,,,-99.99,,2013-02-18 05:21:00,
2013-02-17 23:31:00,41.0,34.0,-100.00,WNW,300,7.0,11.0,74,0.00,,,-99.99,,2013-02-18 05:31:00,
2013-02-17 23:41:00,41.0,34.0,-100.00,WNW,300,7.0,11.0,74,0.00,,,-99.99,,2013-02-18 05:41:00,
2013-02-17 23:52:00,40.0,33.0,-100.00,WSW,250,6.0,7.0,74,0.00,,,-99.99,,2013-02-18 05:52:00,